Location: Erp
(42.9417°N, 1.2009°E)
Time: 22:47:58
(UTC+00:00)

Cosmos 1959 Rocket - Pass Details

Date: 24 April 2026
Orbit: 946 x 997 km, 82.9° (Epoch: 15 May)

Event Time Altitude Azimuth Distance (km) Brightness Sun altitude
Rises 20:08:39 0° 210° (SSW) 3,698 7.5 -14.1°
Reaches altitude 10° 20:11:23 10° 218° (SW) 2,750 6.9 -14.5°
Maximum altitude 20:17:12 38° 285° (WNW) 1,463 6.0 -15.3°
Drops below altitude 10° 20:23:00 10° 353° (N) 2,739 7.5 -16.2°
Sets 20:25:43 0° 1° (N) 3,682 8.0 -16.6°
